Location: Seale
(32.2974°N, 85.1688°W)
Time: 11:09:14
(UTC+00:00)

Hubble Space Telescope - Pass Details

Date: 24 January 2021
Orbit: 535 x 539 km, 28.5° (Epoch: 08 March)

Event Time Altitude Azimuth Distance (km) Brightness Sun altitude
Rises 01:30:49 0° 267° (W) 2,676 5.5 -30.5°
Reaches altitude 10° 01:33:17 10° 256° (WSW) 1,784 4.3 -31.0°
Enters shadow 01:35:03 21° 237° (WSW) 1,250 3.1 -31.4°
